ONEWEB-0344, 49210

Orbit data source: Space-Track

ONEWEB-0344, 49210 is a payload satellite owned by One Web (NAA) (UK) in LEO that was launched on Tue, 14 Sep 2021 UTC via a SOYUZ-2-1B launch vehicle from the Tyuratam Missile And Space Complex (TTMTR). Payload-class satellites include a variety of spacecraft equipped with specific instruments for various scientific and technological missions. These include communications satellites like Starlink; space stations such as the ISS; scientific satellites like the Hubble; Earth observation satellites from companies like Planet Labs, Umbra, and HawkEye 360; GPS; miniature CubeSats for education and research; and military/defense satellites.

Loading next visibility...
Identifier
49210, 2021-083AA
Orbit
LEO
Country
Flag of UKUK
Related business
Manufacturer
One Web
Mission
Operational Commercial Communications
Bus & Motor
ARROW, Unknown motor
Mass
148 kg wet, ~140 kg dry
Launch date (UTC)
2021-09-14 (4 years ago)
Launch vehicle
SOYUZ-2-1B
Launch site
Tyuratam Missile And Space Complex (TTMTR)
Object type
Payload
Rocket body
Debris
Shape & HBR
Trap Box + 2 Pan, 2.5 m
Radar Cross Section
2.032 m², Large (>1 m²)

Expand to show TLE details & history
Last TLE update: 13 hours ago

TLE from 13 hours ago
0 ONEWEB-0344
1 49210U 21083AA  25250.27244428  .00000234  00000-0  60554-3 0  9999
2 49210  87.9016  16.4772 0001853 112.1426 247.9900 13.13469104193758
Epoch: 2025-09-07T06:32Z
TLE epoch observation values (Epoch: 2025-09-07T06:32:19.185Z)
Latitude
-0.00003°
Longitude
-68.19704°
Altitude
1,213.188 km
Speed
7.247 km/s
True Right ascension
01h 05m 54s
True Declination
0° 00' 00"
Sunlit
Object was in full shadow at epoch
Visualization orbit readout
Latitude
Unknown
Longitude
Unknown
Altitude
Unknown
Speed
Unknown
Apparent Right ascension
Unknown
Apparent Declination
Unknown
Sunlit
N/A
Visualization observer readout
Local Sidereal Time
11:42:26
Azimuth
Unknown
Elevation
Unknown
Doppler factor
Unknown
Orbital elements
Apogee altitude
1,208.289 km
Perigee altitude
1,205.478 km
Semi-major axis
7,585.021 km
Eccentricity
0.00019
Inclination
87.9016°
RAAN
16.4772°
Arg. of periapsis
112.1426°
True anomaly
247.97032°
Mean anomaly
247.99°
Eccentric anomaly
247.98016°
Mean motion
3.28555 °/min
Orbital period
109.57 mins
BSTAR
0.00060554
Loading maneuver chart data...
Computing Atmospheric mass density...
Loading historical data...
Loading historical data...
Loading historical data...
Loading historical data...
Loading historical data...
Loading historical data...
Loading historical data...

Documentation

Showing up to 5 results
|